Regional Weather Roundup
Issued by NWS Newport/Morehead, NC

Current Version | Previous Version | Graphics & Text | Print | Product List | Glossary Off
Versions: 1 2 3 4 5 6 7 8 9 10 11 12 13 14 15 16 17 18 19 20 21 22 23 24 25 26 27 28 29 30 31 32 33 34 35 36 37 38 39 40 41 42 43

000
ASUS42 KMHX 240722
RWRMHX
WEATHER ROUNDUP FOR EASTERN NORTH CAROLINA
NATIONAL WEATHER SERVICE NEWPORT/MOREHEAD CITY NC
300 AM EDT THU APR 24 2014

NOTE: "FAIR" INDICATES FEW OR NO CLOUDS BELOW 12,000 FEET
WITH NO SIGNIFICANT WEATHER AND/OR OBSTRUCTIONS TO VISIBILITY

NCZ015>017-031-032-045>047-102-103-240800-
NORTH COAST

CITY           SKY/WX    TMP DP  RH WIND       PRES   REMARKS
EDENTON        CLEAR     50  37  60 N8        30.01R
ELIZABETH CITY CLEAR     52  35  52 N14       30.00S
KITTY HAWK     SUNNY     51  41  68 N8        29.98R
MANTEO         CLEAR     53  38  58 N13G26    30.00R

$$

NCZ045>047-081-094-103-104-240800-
CENTRAL COAST

CITY           SKY/WX    TMP DP  RH WIND       PRES   REMARKS
FRISCO         CLEAR     56  42  59 VRB3      29.99R
SWANQUARTER      N/A     48 N/A N/A N2        29.97S

$$

NCZ095-097-098-100-101-240800-
SOUTHERN COAST

CITY           SKY/WX    TMP DP  RH WIND       PRES   REMARKS
BEAUFORT       CLEAR     53  49  86 NE5       29.99R
CEDAR ISLAND     N/A     57 N/A N/A NE3       30.03R
JACKSONVILLE   CLEAR     52  42  69 N8        29.99S
NEWPORT          N/A     46  46 100 CALM        N/A
PINEY ISLAND   SUNNY     60  50  69 NE3       29.99R
WILMINGTON     CLEAR     48  41  76 N6        29.98R


$$

NCZ011>013-027>030-043-044-078>080-089-090>093-098-240800-
COASTAL PLAIN

CITY           SKY/WX    TMP DP  RH WIND       PRES   REMARKS
AHOSKIE        CLEAR     41  37  84 CALM      30.03R
CLINTON        CLEAR     49  41  73 CALM      30.01S
ELIZABETHTOWN  CLEAR     51  38  63 CALM      30.00R
GOLDSBORO      CLEAR     52  37  56 NE5       30.00S
GREENVILLE     CLEAR     45  39  81 CALM      30.04R
HAVELOCK       CLEAR     52  45  77 CALM      30.01R
KENANSVILLE    CLEAR     52  35  53 CALM      30.02R
KINSTON        CLEAR     49  39  68 N3        30.02S
NEW BERN       CLEAR     49  43  80 CALM      30.02R
RICHLANDS      CLEAR     48  46  93 N5        30.01S
ROANOKE RAPIDS NOT AVBL
ROCKY MOUNT    CLEAR     47  37  68 CALM      30.03R
WASHINGTON     CLEAR     50  40  68 CALM      30.03R
WHITEVILLE     CLEAR     47  44  87 CALM      29.98S

$$

AMZ130-135-150-152-154-156-158-170-250-252-270-ANZ085-086-088-633-658-670-240800-
MARINE OBSERVATIONS

STATION/POSITION TIME  TEMP    WIND        PRES    WAVE   SWELL
                       AIR SEA DIR/SP/G            HT/PER HT/PER
                 (UTC) (F)     (DEG/KT/KT) (MB)    (FT/S) (FT/S)
CHESAPEAKE LIGHT 0700   50     360/ 23/ 24 1015.9
BUOY 44014       0700   50 49  340/ 25/ 31 1014.0    5/ 5   2/ 9
DUCK             0700   52 51   10/ 18/ 24 1014.5
2E DUCK          0700      50                N/A     4/ 5   2/14
OREGON INLET     0700   51 56  340/  9/ 16 1015.8
BUOY 44095       0700      50                N/A     4/ 9   2/15
HATTERAS CG      0700   59 62  350/ 15/ 18 1015.7
DIAMOND BUOY     0700   60 75   10/ 19/ 23 1014.5    4/ 8   2/13
CAPE LOOKOUT     0700   61      40/ 12/ 13 1015.2
BEAUFORT LAB     0700   54 62   40/  4/  6 1014.8
30 SE NEW RIVER  0700   65 69   10/ 14/ 16 1014.8    2/ 9   2/ 9
5 SE WRIGHTSVILL 0700   63 62   10/ 12/ 14 1014.6
FRYING PAN BUOY  0700   68 68   80/  8/  8 1014.1    3/ 9   2/ 9
BUOY 41001       NOT AVBL
BUOY 41002       NOT AVBL
BUOY 41004       0700   68 71   30/  8/ 10 1013.1    2/ 8   2/ 8

$$



USA.gov is the U.S. government's official web portal to all federal, state and local government web resources and services.